"Pseudo-MPEC" for C3ZW5Y2

Created 2020 Nov 23 8:07:17 UT using Find_Orb

Click here for an explanation of pseudo-MPECs

 
 Astrometry: 
     C3ZW5Y2  C2020 11 22.21497003 09 06.94 +40 49 30.7    ~BM67 20.12GVNEOCPG96
     C3ZW5Y2  C2020 11 22.22011003 09 08.03 +40 49 18.9    ~BM67 20.27GVNEOCPG96
     C3ZW5Y2  C2020 11 22.22525403 09 09.16 +40 49 06.7    ~BM67 20.61GVNEOCPG96
     C3ZW5Y2  C2020 11 22.23039503 09 10.29 +40 48 54.7    ~BM67 20.58GVNEOCPG96
     C3ZW5Y2 mC2020 11 22.25483803 09 15.56 +40 47 56.8    ~BM6M 19.97GVNEOCPI52
     C3ZW5Y2 mC2020 11 22.25715803 09 16.03 +40 47 51.0    ~BM6M 19.81GVNEOCPI52
     C3ZW5Y2 mC2020 11 22.25792503 09 16.16 +40 47 49.1    ~BM6M 19.84GVNEOCPI52
     C3ZW5Y2 mC2020 11 22.37045003 09 40.87 +40 42 57.1    ~BM97 20.03GVNEOCPV06
     C3ZW5Y2 mC2020 11 22.37106803 09 41.00 +40 42 55.5    ~BM97 20.00GVNEOCPV06
     C3ZW5Y2 mC2020 11 22.37168603 09 41.15 +40 42 53.7    ~BM97 19.91GVNEOCPV06
     C3ZW5Y2 mC2020 11 22.37230403 09 41.27 +40 42 52.0    ~BM97 20.32GVNEOCPV06
     C3ZW5Y2 KC2020 11 22nXhqdw3/MTWXQq+_v-L!i_2hCZeQebdEqldn]65,atl^'r9JXKmUL01
     C3ZW5Y2 KC2020 11 22+GA62)!XUGv[;nrB_-NF't*bmwg%HZZ-'!Dn_ynFV)aJ!]ccf0D:L01
     C3ZW5Y2 KC2020 11 22n-alNf:.Gi];y=cysl:DHx-1q/Xf@2D,R-(vd(3Y[QCZJiuH7s0kL01
     C3ZW5Y2 KC2020 11 22'2IG(CYMP`Y7BUUKi5,@XgD!m95WoZ^')`dM?7WYpH$MI93iKTgLL01
     C3ZW5Y2 KC2020 11 22p4?_k5?*p#jZP/KaCB/E3LK_nQ:[XdJwJ;fCE7F5qvyC7B?Ggu49L01
     C3ZW5Y2 KC2020 11 22F;R:FFOX1y05;vX:3Y*_/)\G%!nFv\_vQAstrometryk6x8?0#?@L01
     C3ZW5Y2 KC2020 11 2284qJ(^)2C9;%`@Z.f0D%,vKredacted;vtcp^fi%XWv\_Z@rXY37K63
     C3ZW5Y2 KC2020 11 22s.L[N\%.C!YsOvi429Nii0O#PG[c4s6vEq%[wgXR,(vOlb/@Qx*UK63
     C3ZW5Y2 KC2020 11 22.82721303 12 00.47 +40 22 30.1    ~BMKb 20.6 GVNEOCPJ95
     C3ZW5Y2 IC2020 11 22.83623803 12 02.79 +40 22 08.4    ~BMKb       VNEOCPJ95
     C3ZW5Y2 KC2020 11 22.84266703 12 04.48 +40 21 52.7    ~BMKb 19.4 GVNEOCPJ95
     C3ZW5Y2 KC2020 11 23.02002603 12 48.44 +40 14 16.4    ~BN0q 19.7 GVNEOCPI93
     C3ZW5Y2 KC2020 11 23.02255003 12 49.10 +40 14 08.8    ~BN0q 19.9 GVNEOCPI93
     C3ZW5Y2 KC2020 11 23.02543303 12 49.81 +40 14 00.4    ~BN0q 19.9 GVNEOCPI93
     C3ZW5Y2 KC2020 11 235'7Rpdilc`Kx78Wj8=LhclicklBZT+T`]9@8(HOZmIdVd6UU(fyA204
     C3ZW5Y2 KC2020 11 23)%/uGD*RRjiE0(M21b*%eo[O_j_gV^b9dL5ep?rcaHMCO`U7DZ#m204
     C3ZW5Y2 KC2020 11 23o,R`ktp*\0n.herey3Xr_[[forG].j2HyJmYM`)YmiKg9U#I#2Hj204
     C3ZW5Y2 KC2020 11 23.16641203 13 40.52 +40 07 45.3    ~BN4M 20.48GVNEOCPI52
     C3ZW5Y2 KC2020 11 23.16725203 13 40.72 +40 07 43.5    ~BN4M 19.88GVNEOCPI52
     C3ZW5Y2 KC2020 11 23.16809203 13 40.92 +40 07 41.7    ~BN4M 19.86GVNEOCPI52
     C3ZW5Y2 KC2020 11 23j@P%UQbuufuEexplanation3.LN7+AZ0bt?eCvQFgv@qUvH:CmZrH36
     C3ZW5Y2 KC2020 11 23lH'vr#qS4YM-xJ**JKZkB5ADS5gI:lqA0m94FQscPxm4rnmn)h87H36

Station data:
(204) Schiaparelli Observatory  (N45.867933 E8.770800)  Italy.  Observer L.
   Buzzi. 0.60-m f/4.64 Newtonian + CCD.
(G96) Mt. Lemmon Survey  (N32.442754 W110.788720)  US/Arizona.  Observers T.
   A. Pruyne, B. M. Africano, E. J. Christensen, G. A. Farneth, D. C. Fuls,
   A. R. Gibbs, A. D. Grauer, H. Gröller, J. A. Johnson, R. A. Kowalski, S.
   M. Larson, G. J. Leonard, D. Rankin, R. L. Seaman, F. C. Shelly. 1.5-m
   reflector + 10K CCD.
(H36) Sandlot Observatory, Scranton  (N38.797693 W95.706400)  US/Kansas.
   Observer G. Hug. 0.56-m reflector + CCD.
(I52) Steward Observatory, Mt. Lemmon Station  (N32.442547 W110.788920)
   US/Arizona.  Observers T. A. Pruyne, B. M. Africano, E. J. Christensen, G.
   A. Farneth, D. C. Fuls, A. R. Gibbs, A. D. Grauer, H. Gröller, J. A.
   Johnson, R. A. Kowalski, S. M. Larson, G. J. Leonard, D. Rankin, R. L.
   Seaman, F. C. Shelly. 1.0-m reflector + CCD.
(I93) St Pardon de Conques  (N44.558710 W0.203000)  France.  Observer F.
   Losse. 0.40-m f/3.7 reflector + CCD.
(J95) Great Shefford  (N51.474969 W1.447003)  UK.  Observer P. Birtwhistle.
   0.40-m f/6.0 Schmidt-Cassegrain + CCD.
(K63) G. Pascoli Observatory, Castelvecchio Pascoli  (N44.082410 E10.462000)
   Italy.
(L01) Višnjan Observatory, Tičan  (N45.290900 E13.749300)  Croatia.
   Observers K. Korlević, E. Pettarin. Measurer E. Pettarin. 1.0-m f/2.9
   reflector + CCD.
(V06) Catalina Sky Survey-Kuiper  (N32.416847 W110.732550)  US/Arizona.
   Observers T. A. Pruyne, B. M. Africano, E. J. Christensen, G. A. Farneth,
   D. C. Fuls, A. R. Gibbs, A. D. Grauer, H. Gröller, J. A. Johnson, R. A.
   Kowalski, S. M. Larson, G. J. Leonard, D. Rankin, R. L. Seaman, F. C.
   Shelly. 1.55-m reflector + CCD.

Orbital elements:  C3ZW5Y2
   Perihelion 2021 Jan 2.562603 +/- 0.0481 TT = 13:30:08 (JD 2459217.062603)
Epoch 2020 Nov 23.0 TT = JDT 2459176.5   Earth MOID: 0.0247   Ma: 0.0799
M 337.01242298 +/- 0.029            (J2000 ecliptic)          AutoNEOCP
n   0.56671848 +/- 0.000531         Peri.  215.34416 +/- 0.09
a   1.44618703 +/- 0.000903         Node   250.66792 +/- 0.017
e   0.3266457 +/- 0.000576          Incl.    7.76537 +/- 0.010
P   1.74/635.22d           H 25.1   G  0.15   U  7.7  
q 0.97379618 +/- 0.000373    Q 1.91857789 +/- 0.00199
From 33 observations 2020 Nov. 22-23 (25.6 hr); mean residual 0".19
Residuals in arcseconds: 
201122 G96  .03-  .07+    201122 L01  .11-  .35-    201123 I93  .25-  .16+    
201122 G96  .29-  .12+    201122 L01  .02+  .48-    201123 I93  .17+  .14-    
201122 G96  .08-  .15-    201122 L01  .07-  .20-    201123 I93  .12+  .18-    
201122 G96  .16+  .14-    201122 L01  .10-  .45-    201123 204  .06-  .12+    
201122 I52  .34+  .14+    201122 L01  .06-  .07-    201123 204  .06-  .15-    
201122 I52  .02+  .04-    201122 L01  .23+  .29-    201123 204  .12+  .13+    
201122 I52  .37-  .08-    201122 K63  .25+  .45+    201123 I52  .06+  .41-    
201122 V06  .13+  .03-    201122 K63  .01+  .21+    201123 I52  .06-  .07-    
201122 V06  .00   .07+    201122 J95  .07+  .16-    201123 I52  .18-  .27+    
201122 V06  .10+  .02-    201122 J95  .20-  .14+    201123 H36  .09-  .09-    
201122 V06  .15-  .02-    201122 J95  .14+  .20+    201123 H36  .01-  .15-    

Ephemerides (geocentric):
Date (UTC) HH   RA              Dec         delta   r     elong  mag " sig PA
---- -- -- --  -------------   -----------  ------ ------ -----  --- ---- ---
2020 11 23 08  03 14 25.043   +39 59 46.26  .06694 1.0500 158.5 20.3 .096 113
2020 11 23 09  03 14 37.736   +39 57 45.62  .06677 1.0498 158.5 20.3 .123 116
2020 11 23 10  03 14 50.483   +39 55 44.22  .06661 1.0497 158.5 20.3 .153 118
2020 11 23 11  03 15 03.286   +39 53 42.04  .06644 1.0495 158.6 20.3 .186 120
2020 11 23 12  03 15 16.144   +39 51 39.09  .06628 1.0494 158.6 20.3 .220 121
2020 11 23 13  03 15 29.057   +39 49 35.35  .06612 1.0492 158.7 20.3 .257 121
2020 11 23 14  03 15 42.026   +39 47 30.82  .06595 1.0491 158.7 20.3 .296 122
2020 11 23 15  03 15 55.050   +39 45 25.50  .06579 1.0489 158.7 20.3 .338 123
2020 11 23 16  03 16 08.132   +39 43 19.38  .06562 1.0488 158.8 20.2 .382 123
2020 11 23 17  03 16 21.269   +39 41 12.45  .06546 1.0486 158.8 20.2 .428 124
2020 11 23 18  03 16 34.464   +39 39 04.71  .06530 1.0485 158.9 20.2 .477 124
2020 11 23 19  03 16 47.716   +39 36 56.15  .06513 1.0484 158.9 20.2 .528 125
2020 11 23 20  03 17 01.025   +39 34 46.77  .06497 1.0482 159.0 20.2 .581 125
2020 11 23 21  03 17 14.391   +39 32 36.56  .06481 1.0481 159.0 20.2 .638 125
2020 11 23 22  03 17 27.816   +39 30 25.51  .06465 1.0479 159.0 20.2 .696 125
2020 11 23 23  03 17 41.298   +39 28 13.63  .06448 1.0478 159.1 20.2 .758 126
2020 11 24 00  03 17 54.839   +39 26 00.89  .06432 1.0476 159.1 20.2 .822 126
2020 11 24 01  03 18 08.439   +39 23 47.30  .06416 1.0475 159.2 20.2 .889 126
2020 11 24 02  03 18 22.098   +39 21 32.85  .06400 1.0473 159.2 20.2 .958 126
2020 11 24 03  03 18 35.816   +39 19 17.53  .06383 1.0472 159.3 20.2 1.03 127
2020 11 24 04  03 18 49.594   +39 17 01.34  .06367 1.0471 159.3 20.2 1.11 127
2020 11 24 05  03 19 03.432   +39 14 44.27  .06351 1.0469 159.4 20.2 1.18 127
2020 11 24 06  03 19 17.329   +39 12 26.31  .06335 1.0468 159.4 20.1 1.26 127
2020 11 24 07  03 19 31.288   +39 10 07.46  .06319 1.0466 159.5 20.1 1.35 127
2020 11 24 08  03 19 45.306   +39 07 47.72  .06302 1.0465 159.5 20.1 1.43 127
2020 11 24 09  03 19 59.386   +39 05 27.07  .06286 1.0463 159.6 20.1 1.52 127
2020 11 24 10  03 20 13.528   +39 03 05.50  .06270 1.0462 159.6 20.1 1.62 128
2020 11 24 11  03 20 27.730   +39 00 43.02  .06254 1.0461 159.6 20.1 1.71 128
2020 11 24 12  03 20 41.995   +38 58 19.61  .06238 1.0459 159.7 20.1 1.81 128
2020 11 24 13  03 20 56.322   +38 55 55.26  .06222 1.0458 159.7 20.1 1.91 128
2020 11 24 14  03 21 10.711   +38 53 29.98  .06206 1.0456 159.8 20.1 2.02 128
2020 11 24 15  03 21 25.163   +38 51 03.75  .06190 1.0455 159.8 20.1 2.13 128
2020 11 24 16  03 21 39.679   +38 48 36.57  .06174 1.0453 159.9 20.1 2.24 128
2020 11 24 17  03 21 54.257   +38 46 08.43  .06157 1.0452 159.9 20.1 2.35 128
2020 11 24 18  03 22 08.900   +38 43 39.32  .06141 1.0451 160.0 20.1 2.47 128
2020 11 24 19  03 22 23.606   +38 41 09.23  .06125 1.0449 160.0 20.1 2.59 129
2020 11 24 20  03 22 38.376   +38 38 38.16  .06109 1.0448 160.1 20.0 2.72 129
2020 11 24 21  03 22 53.212   +38 36 06.10  .06093 1.0446 160.1 20.0 2.85 129
2020 11 24 22  03 23 08.112   +38 33 33.04  .06077 1.0445 160.2 20.0 2.98 129
2020 11 24 23  03 23 23.077   +38 30 58.98  .06061 1.0443 160.2 20.0 3.12 129
2020 11 25 00  03 23 38.108   +38 28 23.90  .06045 1.0442 160.3 20.0 3.26 129
2020 11 25 01  03 23 53.205   +38 25 47.81  .06029 1.0441 160.4 20.0 3.40 129
2020 11 25 02  03 24 08.367   +38 23 10.68  .06014 1.0439 160.4 20.0 3.55 129
2020 11 25 03  03 24 23.597   +38 20 32.52  .05998 1.0438 160.5 20.0 3.70 129
2020 11 25 04  03 24 38.893   +38 17 53.32  .05982 1.0436 160.5 20.0 3.86 129
2020 11 25 05  03 24 54.256   +38 15 13.06  .05966 1.0435 160.6 20.0 4.02 129
2020 11 25 06  03 25 09.687   +38 12 31.74  .05950 1.0434 160.6 20.0 4.18 129
2020 11 25 07  03 25 25.186   +38 09 49.36  .05934 1.0432 160.7 20.0 4.35 130